STARLINK-1842 (47132 NORAD) Tracking and Keplerian Element Data

This shows tracking and keplerian element data for the satellite.

Feedback or suggestion? Click here.




ElementValue
Catalog47132
NameSTARLINK-1842
Epoch Orbit177
Epoch Day62.91667824
Epoch Year2021
RAAN228.5843
Inclination53.0536
Eccentricity0.0002878
Argument of Perigee85.0135
Mean Anonmoly342.9573
Mean Motion15.63976924
Decay Rate0.000711
L11 47132U 20088L 21062.91667824 .00071100 00000-0 73919-3 0 9990
L22 47132 53.0536 228.5843 0002878 85.0135 342.9573 15.63976924 1770

Live tracking and technical data element details for STARLINK-1842 (NORAD 47132). STARLINK-1842 can be tracked NOW for your location showing map with azimuth and elevation plus other details from your city location.

Track the satellite on the map from your city or location and see movement details for azimuth, elevation, latitude, longitude, range, height, and movement on the map or in text.







IsCatalogInMostPopularTable: catalog: 47132, numindb: 28
Update: records affected: 1



GetName: 47132 STARLINK-1842

Hit Count: updated at: Fri, 05 Mar 2021 07:06:16 GMT